Weather in Karlanyurt

Russia / Republic of Dagestan     43°13′52″N   46°38′48″E
temp.,
°C
wind,
m/s
gust,
m/s
humid.,
%
clouds,
%
prec.,
mm/h
press.,
hPa
HPBL,
m
23 april, fri
fri2300:00+12w467598 0.0 1020242
03:00+11wnw6981100 0.0 1022552
06:00+11w5994100 0.6 1023697
09:00+11w5988100 2.2 1024613
12:00+15w8116747 0.1 10241363
15:00+19wnw68432 0.1 10221913
18:00+16nw34560 0.0 102355
21:00+12sw22617 0.0 102213
24 april, sat
sat2400:00+12se22635 0.0 102013
03:00+11ese35645 0.0 101854
06:00+11ese016930 0.0 101832
09:00+18ese23475 0.0 1017883
12:00+22nne3339100 0.0 10171602
15:00+20ene64465 0.0 1017771
18:00+15e476145 0.0 1019251
21:00+11ese117536 0.0 102116
25 april, sun
sun2500:00+11nne117546 0.0 102012
03:00+11w22775 0.0 102118
06:00+11wsw127772 0.0 102266
09:00+16ne2158100 0.0 1021606
12:00+20e664420 0.0 10181453
15:00+19e774181 0.0 10171184
18:00+15e6953100 0.0 1016396
21:00+11e5965100 0.0 1015222
26 april, mon
mon2600:00+10e2275100 0.0 101246
03:00+9w478776 0.0 1013173
06:00+10w4778100 0.0 1012247
09:00+16wnw4460100 0.0 1010603
12:00+20ne224982 0.0 1006794
15:00+22nw4447100 0.0 10061279
18:00+17nw3475100 0.8 100689
21:00+15w61174100 1.0 1010269
27 april, tue
tue2700:00+13wnw7108253 0.0 1013714
03:00+12w5989100 0.1 1014619
06:00+11wnw51091100 1.9 1016668
09:00+11wnw6989100 2.7 1019693
12:00+13wnw6771100 0.6 10191026
15:00+14nw2259100 0.6 1017922
18:00+13nne2367100 0.0 1018321
21:00+12se1170100 0.0 101813